Starlink 3625

operational
NORAD ID: 51777 Int'l Des: 2022-017 Owner: SPXS Country: US Constellation: starlink
LEOCIRCULAR

About Starlink 3625

Description loading...

Live Position

Loading 3D Globe...

Upcoming Passes

Altitude History

Altitude vs Time

uPlot chart will show altitude changes over time

Two-Line Element Set

1 51777U 22017K 25350.33227238 .00001210 00000-0 94103-4 0 9999
2 51777 53.2189 353.2990 0001303 94.3167 265.7974 15.08840632210016
Epoch: Dec 16, 2025 • Age: 19 hours

Current Status

Altitude 539.8 km
Velocity 7.60 km/s
Sub-Earth Point 17.26°N, 130.14°W
Launch Date Feb 25, 2022
Age 3.8 years
Type internet

Technical Details

Classification Payload
Mass 297.00 kg
Dry Mass 275.00 kg
Total Mass 297.00 kg
Length 0.20 m
Diameter 2.80 m
Span 9.00 m
Shape Box + pan
Manufacturer SPXS
Bus Type Starlink
Phase Status In Orbit
Owner/State SPXS/US

Large Constellations

Loading constellations...